NOAA 16 DEB

Satellite information

Favourite Embed

Satellite Type and Status

DEBRISIN ORBIT

Key statistics

Satellite NOAA 16 DEB at a glance.

Uptime

9115

Days in orbit

Revolutions

≈ 14.2

Per day

Orbit

SSO

Sun Synchronous Orbit

Inclination

98.7

Latest

Satellite identification and parameters

Extended collection of information and parameters for NOAA 16 DEB.

Object identification

Identified? True

Debris? True

Object name: NOAA 16 DEB

International designator: 2000-055MK

Object number (NORAD): 41511

Object ID (CCSDS): 41511

Country: UNITED STATES OF AMERICA (US)

Current information (Y/N): Y

RCS size: SMALL

Orbital parameters

Period: 101.352 minutes

Inclination: 98.7067 deg

SMA: 7200.819 km

Apoapsis: 840.376 km

Periapsis: 804.991 km

RAAN: 295.8647 deg

Eccentricy: 0.00245702

Argument of periapsis: 233.8965 deg

Mean anomaly: 125.9937 deg

Mean motion: 14.20790145 rev/day

Mean motion (dot): 0.00003407 rev/day2

B* drag term: 0.0015931543 1/REarth

Two-line elements (TLE)

Creation date: Aug. 28, 2025, 11:13 p.m.

Reference frame: TEME

Reference center: EARTH

Epoch: Aug. 28, 2025, 9:07 a.m. UTC

TLE line 0: 0 NOAA 16 DEB

TLE line 1: 1 41511U 00055MK 25240.38045454 .00003407 00000-0 15932-2 0 9994

TLE line 2: 2 41511 98.7067 295.8647 0024570 233.8965 125.9937 14.20790145486317

Live tracking on map

Real-time ground track for satellite NOAA 16 DEB.

In-orbit conjunctions

A list of the most updated potential collisions computed for object NOAA 16 DEB.

Target Orbit TCA Probability of collision Miss distance Type
METEOR 1-17 LEO 2024-10-15 14:13:24 0.0001281301 778.0 (m) PAYLOAD
SL-16 DEB LEO 2024-09-27 13:00:18 0.0003719643 975.0 (m) DEBRIS

Associated space launch

The NOAA K, L and M POES satellites begin the fifth generation of improved environmental monitoring in support of NOAA missions. The instrument payload has significant improvements and additions/deletions. The instrument changes have effected the spacecraft subsystems and data formats.

NOAA 16 DEB was lifted into orbit during the mission ‘Titan II SLV | NOAA 16’, on board a Titan II SLV space rocket.

The launch took place on Sept. 21, 2000, 10:22 a.m. from Space Launch Complex 4W.

For more information about the launch, click the button.

Launch to space Titan II SLV | NOAA 16
Titan II SLV | NOAA 16

Agency: N/A

Status: Launch Successful

Launch date: Sept. 21, 2000, 10:22 a.m. UTC

Rocket: Titan II SLV

Launch pad: Space Launch Complex 4W

Location: Vandenberg SFB, CA, USA

...

Latest news about this satellite

There are no fresh news available about this satellite. Check back as we update our databases every day.


Newsletter sign-up

Weekly statistics, charts and insights to help you stay on top of the space industry.